Theta_e
293 294 294 293 292 293 290 291 286 289 291 294 294 294 294 296 296 296 296 297 297 298 299 300 300 302 303 304 306 307 306 304 303 306 307 308 309 310 310 311 312 313 313 313
286 291 291 289 292 292 292 293 292 292 292 294 294 294 293 294 296 294 294 296 297 297 298 298 299 300 302 302 304 306 306 306 306 305 305 306 307 308 309 309 309 310 311 311
280 287 287 284 289 291 291 291 291 287 290 293 292 293 292 293 295 295 295 295 296 296 297 298 298 300 300 302 303 304 305 305 306 307 306 305 306 307 307 307 309 308 309 310
280 282 275 287 293 294 290 289 289 289 289 290 290 291 292 294 293 293 294 295 295 295 296 297 298 299 300 301 301 302 303 303 304 305 306 306 305 305 306 307 307 308 309 309
277 278 283 287 288 287 287 287 289 287 287 288 290 289 290 294 294 294 294 295 295 296 297 297 298 299 299 299 300 300 301 302 303 304 304 305 305 305 306 305 306 307 309 308
279 276 276 284 288 291 291 285 289 287 287 287 288 282 285 292 294 294 294 295 295 296 297 297 297 298 297 297 298 299 300 301 302 303 303 304 305 305 306 306 307 308 308 309
281 277 282 286 288 290 282 281 288 289 288 287 285 287 290 292 293 294 294 295 296 296 295 296 297 297 296 297 297 299 302 301 301 301 301 303 304 305 305 305 306 306 307 308
281 278 277 289 287 281 284 288 288 288 288 288 289 290 291 292 292 293 294 295 296 295 295 296 297 297 296 296 298 300 300 300 300 300 300 302 301 304 305 305 304 304 305 307
281 279 286 289 287 289 290 288 288 289 290 290 290 290 291 291 292 293 294 294 295 295 295 296 297 297 296 297 299 299 299 298 299 300 300 300 300 302 304 304 303 304 305 305
281 284 285 287 289 290 291 289 290 291 291 291 290 291 291 292 292 293 294 294 295 295 294 295 296 297 297 297 298 298 298 298 299 298 299 299 300 301 301 303 303 304 304 305
282 285 286 288 288 289 290 291 291 292 292 292 292 291 292 292 293 294 294 294 295 294 294 295 296 297 298 298 298 297 297 298 298 299 299 299 300 300 301 302 305 305 305 305
280 286 286 286 289 291 290 291 291 291 291 292 292 291 292 292 293 293 294 294 294 295 294 295 296 297 298 298 298 297 297 297 298 298 298 299 298 299 303 303 304 305 306 306
285 289 288 289 291 292 290 290 291 290 290 289 290 290 289 289 290 292 291 291 291 291 291 293 295 296 298 298 298 297 296 297 298 299 298 298 298 298 298 301 303 304 306 306
290 289 287 289 288 290 290 290 290 289 289 288 287 287 287 286 287 287 287 289 290 290 290 291 292 292 294 295 296 295 296 299 298 298 298 298 298 298 298 298 298 299 303 305
290 290 288 289 289 289 288 287 285 285 285 284 285 285 285 285 285 286 288 288 288 288 288 290 290 291 294 295 295 295 295 296 297 297 298 298 298 298 298 298 298 299 300 303
288 288 287 286 286 286 285 285 283 282 283 283 283 283 284 285 286 287 288 289 288 287 289 290 291 292 293 292 292 293 294 296 296 296 297 296 298 298 297 297 298 299 299 300
285 284 285 284 284 284 284 284 283 283 282 282 283 283 284 284 284 285 286 288 288 289 289 286 287 290 290 290 290 291 292 292 295 294 295 296 297 297 297 297 297 298 299 301
287 286 285 284 284 283 283 283 283 283 282 283 283 283 282 283 283 284 285 286 286 284 285 286 287 287 287 288 288 289 290 291 293 294 295 294 294 295 296 297 298 298 299 301
286 286 285 285 284 283 283 283 283 283 283 283 282 281 282 283 282 284 283 283 282 282 284 286 288 286 286 287 288 286 286 286 287 288 292 295 296 297 297 298 298 298 299 299
286 286 285 285 285 284 283 284 283 283 283 283 282 281 281 282 282 282 282 281 282 283 285 285 285 285 284 285 286 284 284 283 283 284 285 285 288 294 297 297 298 299 299 299
285 284 284 283 283 284 284 284 283 282 282 282 280 279 280 281 281 280 279 278 281 284 283 285 285 284 284 284 283 282 282 281 281 281 281 282 282 283 285 288 296 299 299 299
285 283 284 283 282 282 283 283 281 281 280 280 279 279 278 278 279 278 279 278 281 284 281 282 283 284 283 283 281 281 281 280 280 280 280 280 280 281 281 282 283 284 285 286
284 284 284 283 281 281 281 281 280 280 279 278 277 277 276 277 278 276 275 279 280 281 279 281 284 284 283 280 279 279 280 280 279 280 280 280 280 280 280 281 281 281 281 282
283 283 283 282 281 280 278 279 278 279 278 278 276 276 276 276 276 278 278 280 281 280 279 281 282 283 282 278 278 278 278 279 280 279 280 281 280 280 280 280 280 280 281 281
284 283 281 279 279 277 278 278 277 277 277 275 275 275 275 275 274 275 276 277 280 279 276 280 281 281 277 277 277 277 277 278 279 279 279 279 280 280 280 280 280 280 280 280
281 281 280 279 278 278 277 277 275 275 275 274 274 274 274 274 275 275 275 279 277 279 276 276 277 277 276 276 276 276 276 277 278 278 278 279 279 280 280 280 280 280 280 281
280 281 280 279 279 278 278 277 274 273 274 274 273 274 275 273 274 275 277 272 271 274 273 274 275 277 276 276 275 275 275 276 278 277 277 278 279 279 280 280 280 281 281 281
Wind_Speed
13 14 11 8 11 10 9 10 9 8 15 14 12 10 10 8 7 8 9 12 12 12 11 12 13 12 12 11 12 12 8 8 8 8 7 7 8 8 8 9 12 13 14 15
13 14 16 19 16 17 17 16 16 16 16 11 10 9 11 12 12 6 7 10 12 13 14 14 15 15 12 11 13 12 10 9 10 8 7 8 8 8 8 8 9 11 14 15
5 7 9 8 8 7 1 14 7 6 6 9 9 11 11 13 13 7 10 10 11 11 12 12 13 15 13 12 12 12 10 7 8 10 10 8 8 8 8 9 9 11 13 14
6 7 4 6 17 12 14 12 13 13 13 12 11 11 10 9 14 12 12 12 10 9 12 11 11 12 13 11 12 11 11 7 8 10 10 8 8 8 8 7 9 11 13 13
4 3 10 9 16 12 9 7 11 13 13 12 12 9 9 13 15 10 8 9 11 9 11 12 14 12 12 14 12 11 11 8 9 10 12 9 8 8 7 7 7 9 11 12
5 4 4 9 14 15 12 4 14 13 12 15 15 11 6 14 16 12 14 13 14 13 12 12 12 12 11 12 14 13 9 11 11 12 11 13 9 8 6 6 8 7 10 12
7 5 6 11 17 16 3 7 15 14 13 12 9 7 12 11 15 15 14 16 11 12 13 14 12 12 9 11 12 12 11 12 12 11 12 12 10 6 7 7 7 7 9 9
3 5 6 15 15 9 10 16 16 14 9 8 11 14 15 15 14 14 16 17 15 13 12 11 9 12 14 12 10 12 13 13 13 12 10 10 12 13 7 7 7 7 7 8
3 6 20 18 9 9 11 14 11 14 14 14 16 16 16 16 16 14 15 12 14 13 14 13 11 10 11 11 13 12 14 14 13 14 12 11 10 12 8 7 6 7 7 8
8 9 12 14 19 15 8 10 13 13 16 16 19 18 18 16 15 14 14 13 12 14 15 15 13 12 11 12 12 12 14 14 13 12 14 12 8 7 10 8 6 6 7 8
14 14 12 11 9 11 18 18 18 17 15 14 15 18 20 19 18 17 16 16 15 15 14 16 15 16 14 12 11 13 14 12 12 10 11 12 11 9 9 11 9 11 9 8
6 14 11 11 13 13 13 13 16 18 19 18 17 19 20 18 17 17 16 17 15 16 17 17 15 16 15 12 11 13 14 11 10 8 9 10 11 13 13 17 20 18 19 16
11 10 11 8 10 10 14 17 17 18 19 20 19 19 20 19 16 21 18 18 17 19 21 20 18 18 17 17 17 15 13 13 11 9 9 11 12 12 14 12 16 18 17 19
11 6 9 7 11 13 13 16 18 18 17 17 18 18 17 19 21 19 18 17 17 18 18 20 19 21 17 18 18 16 18 19 8 9 10 11 12 13 12 12 14 14 12 14
6 7 8 12 12 13 13 15 17 15 17 18 16 18 17 19 18 18 17 17 18 18 18 17 18 19 17 17 18 18 14 13 13 12 12 14 13 15 14 14 13 13 14 13
6 7 8 10 11 12 14 15 15 15 16 17 18 18 18 18 17 16 15 15 16 13 17 17 18 16 16 16 17 15 15 24 20 14 13 13 13 13 13 13 13 12 11 13
6 7 8 8 10 12 12 12 12 14 16 16 16 17 17 16 15 14 14 14 14 13 14 15 16 16 16 15 16 12 13 15 23 16 14 15 13 13 12 12 12 12 13 12
5 5 5 6 7 10 11 11 12 14 13 15 15 15 15 15 15 14 14 12 13 14 15 17 17 19 17 16 15 13 13 14 14 14 14 14 14 14 15 14 13 13 13 12
4 4 4 5 6 7 9 10 11 12 12 13 13 13 14 12 13 14 14 12 14 14 16 16 24 19 16 18 19 11 12 13 13 13 15 20 15 13 14 14 13 13 13 12
4 3 4 5 5 6 7 8 10 11 11 11 12 12 13 13 13 13 12 11 13 12 15 17 18 16 16 19 23 11 12 13 13 12 12 13 15 16 14 16 14 14 13 13
3 3 4 4 4 5 6 6 8 9 10 10 12 13 13 12 13 13 12 11 16 17 19 21 16 13 11 17 15 13 14 15 15 14 14 14 14 14 15 18 15 13 12 11
4 3 4 3 4 4 5 4 6 7 8 9 10 11 12 12 12 11 10 11 11 24 14 11 12 24 17 22 12 13 14 15 14 13 14 14 14 14 15 15 15 13 14 14
4 3 5 3 4 4 4 4 5 5 6 5 6 8 8 7 6 9 11 13 10 17 10 11 23 27 27 13 12 13 14 15 14 14 14 14 14 14 14 15 14 14 15 14
1 3 5 2 4 3 3 3 4 3 4 3 3 5 6 7 7 6 8 14 20 18 13 15 20 26 23 11 12 12 13 12 13 13 13 21 14 13 14 15 14 14 14 16
3 5 3 1 3 2 3 3 3 3 4 4 3 3 4 3 3 4 5 7 16 13 9 18 23 24 10 10 11 12 12 12 13 12 12 12 12 12 14 13 14 15 14 14
3 2 1 3 3 2 2 2 1 2 2 3 3 3 3 3 3 4 3 10 7 13 7 8 9 10 10 10 11 11 10 11 12 12 15 12 13 13 12 12 13 13 13 14
4 5 2 2 2 1 2 2 2 3 2 2 2 4 4 3 4 5 9 4 3 6 5 5 6 11 9 10 10 10 10 10 16 13 12 12 12 12 13 13 12 11 11 12
Wind_Direction
298 309 314 291 281 277 259 260 253 276 291 310 37 34 22 14 40 30 21 13 9 3 2 359 356 348 346 351 345 332 321 324 309 265 239 230 221 220 223 220 224 221 219 222
288 284 281 276 265 260 257 252 253 266 270 33 30 19 16 355 342 23 17 10 359 358 355 353 349 340 339 343 340 334 329 349 334 329 291 253 238 228 224 228 225 223 222 219
274 290 336 289 265 266 117 35 336 296 27 18 11 2 3 331 312 354 14 5 354 354 348 341 339 330 335 334 332 327 326 352 344 338 333 314 270 233 225 227 232 236 231 223
297 328 253 114 25 68 82 58 39 26 10 356 348 345 338 318 14 3 359 350 347 346 333 325 323 320 324 325 325 318 317 342 337 333 323 312 317 291 253 222 225 235 242 236
266 285 305 6 29 11 338 74 41 6 350 341 338 340 316 346 352 342 336 349 337 328 317 319 314 314 320 320 319 314 310 333 329 326 317 305 297 291 284 257 238 231 237 240
297 304 303 35 2 339 304 157 346 354 347 345 343 329 318 340 329 339 343 328 318 309 313 300 304 303 305 307 314 314 316 326 322 318 309 309 289 280 267 263 257 245 244 239
236 240 260 35 2 329 206 355 350 346 329 320 312 288 310 319 316 312 310 303 303 305 299 298 298 293 298 297 296 304 313 314 313 307 307 302 304 281 271 269 268 264 254 250
300 261 241 359 350 350 314 326 319 312 304 308 314 316 315 313 311 314 310 301 298 299 296 290 303 301 292 291 299 308 308 305 304 303 300 304 302 297 273 266 265 264 261 261
232 275 313 321 316 319 305 292 315 337 327 323 318 311 309 304 299 299 299 298 293 290 294 295 287 282 289 298 298 290 299 300 301 300 299 296 294 297 309 277 262 266 260 264
301 304 307 313 310 301 307 328 330 321 312 310 306 307 304 300 298 298 298 301 299 297 296 295 294 292 285 293 292 292 290 292 298 299 301 298 293 299 295 294 279 266 268 267
285 286 286 290 304 338 331 327 316 308 309 309 310 305 304 301 299 296 293 294 295 292 295 298 298 293 293 289 290 292 291 289 290 294 299 302 296 287 284 283 273 283 270 263
269 277 285 308 319 321 317 324 324 316 319 323 326 322 321 316 318 317 319 326 317 305 293 292 298 295 290 291 285 287 290 290 285 284 289 294 294 296 270 265 274 268 267 261
300 294 288 304 330 336 327 321 329 326 324 325 325 325 323 316 314 315 313 318 322 316 310 312 309 306 309 316 309 287 281 284 281 279 297 294 291 290 293 289 253 269 267 268
271 333 317 323 318 331 338 334 336 327 322 323 325 323 316 309 307 304 304 305 307 306 307 307 302 298 311 312 310 311 319 304 295 295 289 290 293 286 283 286 293 293 278 258
19 1 331 325 333 344 348 338 327 323 329 326 324 319 317 316 314 309 305 302 297 294 293 297 301 301 307 302 296 301 305 295 291 290 285 280 282 279 277 279 277 279 291 276
354 323 328 345 334 341 338 329 329 328 328 330 326 326 323 317 314 315 317 322 315 309 309 306 307 330 339 340 325 311 302 293 295 295 291 289 284 274 273 275 277 277 276 280
340 327 338 328 336 331 325 330 331 335 331 330 331 328 325 327 324 327 327 327 321 334 353 353 332 340 335 324 317 307 300 296 294 290 289 289 289 287 281 271 273 273 273 273
6 338 335 355 331 321 331 337 343 338 339 334 333 333 335 337 348 341 345 340 353 353 356 344 340 336 332 327 322 314 306 303 304 295 288 284 279 273 270 267 266 272 277 272
357 327 352 318 322 333 334 342 343 333 342 341 338 344 344 345 355 353 1 353 2 351 351 340 345 347 341 339 348 336 332 330 328 322 318 302 282 279 276 273 270 266 268 272
336 337 317 315 345 345 337 343 336 341 345 344 341 348 353 356 0 353 2 359 4 349 345 350 354 356 354 352 357 347 346 346 341 340 339 334 335 323 293 277 272 273 271 269
314 320 310 341 341 336 340 351 339 341 345 350 354 353 349 352 1 354 2 359 358 355 355 357 360 4 359 6 360 358 357 357 360 357 355 352 349 349 348 351 325 297 284 279
288 285 297 319 328 326 335 353 349 338 349 351 357 353 348 350 358 0 6 359 350 360 355 356 2 11 7 8 358 359 3 4 4 4 1 2 2 1 0 2 359 356 358 355
254 271 289 320 309 294 330 15 333 334 341 339 360 353 350 341 346 357 358 352 355 3 357 354 7 11 11 5 2 0 1 7 5 9 10 6 8 5 5 4 5 3 7 5
203 263 270 321 314 326 348 311 309 328 304 323 6 339 352 352 350 358 341 350 358 9 2 357 8 13 9 4 2 3 1 3 6 4 7 12 11 9 9 7 9 8 9 13
224 254 255 62 327 324 311 304 319 9 340 337 6 341 339 309 330 317 334 341 355 7 354 358 4 9 1 360 3 1 5 360 7 2 5 4 2 8 10 8 10 11 12 14
225 247 188 187 202 241 276 319 313 325 352 319 312 330 316 307 311 341 320 355 354 353 352 349 358 2 0 359 358 359 360 356 6 4 2 358 5 4 4 8 8 8 8 9
212 223 244 229 101 11 312 304 358 310 325 298 306 303 303 302 321 340 350 325 320 337 326 349 349 360 360 2 356 355 359 360 3 3 360 357 3 2 3 4 3 1 5 7